User: anonymous   Login
Location: Fremont
(37.5480°N, 121.9880°W)
Time: 00:56:15
(UTC-07:00)
Language:

Cosmos 1844 Rocket - Orbit

View from above orbital plane
View from above orbital plane
View from above satellite
View from above satellite

Ground track
Ground track

The orbit data is extracted from the following two-line orbital elements,

1 17974U 87041B   16145.16058773 -.00000138  00000-0 -44331-4 0  9995
2 17974  71.0091   9.4665 0016214 267.9812 229.0158 14.17204031501564
Epoch (UTC): 24 May 2016 03:51:14
Eccentricity: 0.0016214
inclination: 71.0091°
perigee height: 823 km
apogee height: 846 km
right ascension of ascending node: 9.4665°
argument of perigee: 267.9812°
revolutions per day: 14.17204031
mean anomaly at epoch: 229.0158°
orbit number at epoch: 50156

The dashed part of the orbit path shows where the satellite is in the earth's shadow,  

DLR